Simultaneous Nadir Overpasses (SNOs) Predictions

Prediction of SNOs between FY3D and METOP-A Satellite Orbit:

Table of predicted SNOs for the next 14.0 days since TLE Epoch: 1/23/2021
Index Date (FY3D) Time (FY3D) Lat,Lon (FY3D) SZA (FY3D ) Date (METOP-A) Time (METOP-A) Lat,Lon (METOP-A) SZA (METOP-A ) Distance(km) Time Diff (sec)
1 01/24/2021 22:55:44 76.89, 178.32 96.60 01/24/2021 22:56:52 76.86,-179.37 96.38 58.42 68
2 01/24/2021 23:46:25 -76.79, -13.95 83.54 01/24/2021 23:47:36 -76.76, -12.43 83.70 39.07 71
3 01/25/2021 00:37:06 76.58, 154.17 96.20 01/25/2021 00:38:20 76.57, 154.21 96.16 1.91 74
4 01/25/2021 01:27:49 -76.57, -38.47 83.83 01/25/2021 01:29:02 -76.56, -38.50 83.86 1.57 73
5 01/25/2021 02:18:35 76.59, 128.80 96.18 01/25/2021 02:19:42 76.55, 128.80 96.13 3.71 67
6 01/25/2021 03:09:18 -76.57, -63.84 83.85 01/25/2021 03:10:23 -76.59, -63.75 83.86 2.89 65
7 01/25/2021 04:00:04 76.59, 103.43 96.17 01/25/2021 04:01:03 76.58, 103.55 96.13 3.41 59
8 01/25/2021 04:50:47 -76.57, -89.21 83.86 01/25/2021 04:51:45 -76.57, -89.15 83.89 1.44 58
9 01/25/2021 05:41:32 76.54, 78.22 96.09 01/25/2021 05:42:25 76.56, 78.15 96.10 2.93 53
10 01/25/2021 06:32:16 -76.57,-114.58 83.88 01/25/2021 06:33:07 -76.55,-114.56 83.92 2.54 51
11 01/25/2021 07:23:01 76.54, 52.85 96.08 01/25/2021 07:23:47 76.54, 52.74 96.07 3.03 46
12 01/25/2021 08:13:45 -76.57,-139.95 83.90 01/25/2021 08:14:28 -76.58,-139.81 83.92 3.68 43
13 01/25/2021 09:04:30 76.54, 27.48 96.06 01/25/2021 09:05:08 76.57, 27.49 96.07 2.96 38
14 01/25/2021 09:55:14 -76.57,-165.32 83.91 01/25/2021 09:55:50 -76.56,-165.22 83.95 3.13 36
15 01/25/2021 10:45:59 76.54, 2.11 96.04 01/25/2021 10:46:30 76.55, 2.08 96.04 1.12 31
16 01/25/2021 11:36:42 -76.53, 169.48 83.99 01/25/2021 11:37:12 -76.54, 169.38 83.98 2.94 30
17 01/25/2021 12:27:28 76.54, -23.26 96.03 01/25/2021 12:27:52 76.53, -23.33 96.01 2.16 24
18 01/25/2021 13:18:11 -76.53, 144.11 84.00 01/25/2021 13:18:34 -76.52, 143.97 84.01 3.75 23
19 01/25/2021 14:08:57 76.54, -48.63 96.01 01/25/2021 14:09:13 76.56, -48.57 96.01 2.28 16
20 01/25/2021 14:59:40 -76.53, 118.74 84.02 01/25/2021 14:59:55 -76.55, 118.72 84.01 2.13 15
21 01/25/2021 15:50:26 76.54, -74.00 95.99 01/25/2021 15:50:35 76.54, -73.98 95.98 0.71 9
22 01/25/2021 16:41:09 -76.53, 93.37 84.04 01/25/2021 16:41:17 -76.53, 93.31 84.04 1.37 8
23 01/25/2021 17:31:55 76.54, -99.37 95.98 01/25/2021 17:31:57 76.52, -99.39 95.95 2.60 2
24 01/25/2021 18:22:38 -76.53, 67.99 84.05 01/25/2021 18:22:39 -76.51, 67.90 84.07 3.15 1
25 01/25/2021 19:13:24 76.54,-124.74 95.96 01/25/2021 19:13:18 76.55,-124.63 95.96 2.87 6
26 01/25/2021 20:04:07 -76.53, 42.62 84.07 01/25/2021 20:04:00 -76.54, 42.66 84.06 1.26 7
27 01/25/2021 20:54:53 76.54,-150.12 95.94 01/25/2021 20:54:40 76.53,-150.04 95.93 2.53 13
28 01/25/2021 21:45:36 -76.53, 17.25 84.09 01/25/2021 21:45:22 -76.52, 17.25 84.09 1.23 14
29 01/25/2021 22:36:21 76.50,-175.32 95.87 01/25/2021 22:36:02 76.51,-175.45 95.90 3.67 19
30 01/25/2021 23:27:05 -76.53, -8.12 84.11 01/25/2021 23:26:44 -76.50, -8.16 84.12 3.49 21
31 01/26/2021 00:17:50 76.50, 159.31 95.85 01/26/2021 00:17:23 76.54, 159.30 95.90 4.11 27
32 01/26/2021 01:08:34 -76.53, -33.49 84.12 01/26/2021 01:08:05 -76.53, -33.40 84.12 2.24 29
33 01/26/2021 01:59:19 76.50, 133.94 95.84 01/26/2021 01:58:45 76.52, 133.89 95.87 2.32 34
34 01/26/2021 02:50:03 -76.53, -58.86 84.14 01/26/2021 02:49:27 -76.51, -58.81 84.15 2.75 36
35 01/26/2021 03:40:48 76.50, 108.57 95.82 01/26/2021 03:40:07 76.50, 108.48 95.84 2.18 41
36 01/26/2021 04:31:31 -76.49, -84.06 84.21 01/26/2021 04:30:49 -76.49, -84.22 84.18 4.10 42
37 01/26/2021 05:22:17 76.50, 83.20 95.80 01/26/2021 05:21:28 76.52, 83.24 95.84 3.03 49
38 01/26/2021 06:13:00 -76.49,-109.43 84.23 01/26/2021 06:12:10 -76.52,-109.47 84.18 3.47 50
39 01/26/2021 07:03:46 76.50, 57.83 95.78 01/26/2021 07:02:50 76.51, 57.83 95.81 0.71 56
40 01/26/2021 07:54:29 -76.49,-134.80 84.25 01/26/2021 07:53:32 -76.50,-134.87 84.21 2.21 57
41 01/26/2021 08:45:15 76.50, 32.45 95.77 01/26/2021 08:44:12 76.49, 32.42 95.78 1.67 63
42 01/26/2021 09:35:58 -76.49,-160.18 84.26 01/26/2021 09:34:54 -76.48,-160.28 84.24 2.90 64
43 01/26/2021 10:26:44 76.50, 7.08 95.75 01/26/2021 10:25:33 76.51, 7.18 95.78 2.85 71
44 01/26/2021 11:17:27 -76.49, 174.45 84.28 01/26/2021 11:16:15 -76.51, 174.47 84.24 2.19 72
45 01/26/2021 12:08:10 76.37, -17.79 95.57 01/26/2021 12:06:58 76.36, -18.72 95.65 24.41 72
46 01/26/2021 12:58:53 -76.35, 149.58 84.46 01/26/2021 12:57:40 -76.35, 148.58 84.37 26.19 73
47 01/26/2021 13:49:33 76.09, -42.19 95.22 01/26/2021 13:48:26 76.06, -45.06 95.43 77.10 67
48 01/26/2021 14:40:14 -76.04, 125.33 84.86 01/26/2021 14:39:08 -76.01, 122.09 84.62 87.21 66



Historial Predications of SNOs between FY3D and METOP-A
